Location: Unspecified
(0.0000°N, 0.0000°E)
Time: 16:21:03
(UTC+00:00)

Altair - Pass Details

Date: 27 November 2019
Orbit: 1502 x 1682 km, 47.2° (Epoch: 12 December)

Event Time Altitude Azimuth Distance (km) Brightness Sun altitude
Rises 09:06:11 0° 326° (NW) 4,690 9.7 45.3°
Reaches altitude 10° 09:09:13 10° 329° (NNW) 3,729 9.3 46.0°
Maximum altitude 09:18:38 69° 51° (NE) 1,687 8.7 48.0°
Drops below altitude 10° 09:28:27 10° 133° (SE) 3,881 10.5 50.0°
Sets 09:31:40 0° 135° (SE) 4,889 10.8 50.7°
